This is the latest recevied weather packets stored in our database for station/object IA5ITY-13. If no packets are shown the sender has not sent any weather packets the latest 10 day(s).
| Time | Temp. | Humidity | Pressure | Rain* | Wind** | Luminosity | Snow |
|---|---|---|---|---|---|---|---|
| 1777637110 | 22.22° C | 28% | 1021.9 hPa | 0 mm | - | - | - |
| 1777636832 | 22.78° C | 21% | 1022.2 hPa | 0 mm | - | - | - |
| 1777636509 | 22.78° C | 24% | 1022.1 hPa | 0 mm | - | - | - |
| 1777636212 | 22.78° C | 20% | 1022.3 hPa | 0 mm | - | - | - |
| 1777635912 | 22.78° C | 21% | 1022.2 hPa | 0 mm | - | - | - |
| 1777635612 | 22.22° C | 22% | 1022.2 hPa | 0 mm | - | - | - |
| 1777635309 | 22.78° C | 23% | 1022.2 hPa | 0 mm | - | - | - |
| 1777635024 | 22.22° C | 25% | 1022.3 hPa | 0 mm | - | - | - |
| 1777634709 | 22.22° C | 26% | 1022.4 hPa | 0 mm | - | - | - |
| 1777634413 | 22.78° C | 23% | 1022.3 hPa | 0 mm | - | - | - |
| 1777634112 | 22.22° C | 26% | 1022.4 hPa | 0 mm | - | - | - |
| 1777633812 | 21.11° C | 29% | 1022.5 hPa | 0 mm | - | - | - |
| 1777633509 | 18.89° C | 39% | 1022.6 hPa | 0 mm | - | - | - |
| 1777633232 | 20° C | 39% | 1022.8 hPa | 0 mm | - | - | - |
| 1777632909 | 20° C | 37% | 1022.7 hPa | 0 mm | - | - | - |
| 1777632613 | 18.89° C | 38% | 1022.8 hPa | 0 mm | - | - | - |
| 1777632312 | 20° C | 33% | 1022.9 hPa | 0 mm | - | - | - |
| 1777632012 | 18.89° C | 38% | 1022.5 hPa | 0 mm | - | - | - |
| 1777631709 | 18.89° C | 35% | 1022.9 hPa | 0 mm | - | - | - |
| 1777631423 | 20° C | 30% | 1022.9 hPa | 0 mm | - | - | - |
| 1777631109 | 18.89° C | 34% | 1023.1 hPa | 0 mm | - | - | - |
| 1777630813 | 18.89° C | 35% | 1023.2 hPa | 0 mm | - | - | - |
| 1777630512 | 18.89° C | 35% | 1023.2 hPa | 0 mm | - | - | - |
| 1777630213 | 18.89° C | 34% | 1023.2 hPa | 0 mm | - | - | - |
| 1777629909 | 18.89° C | 34% | 1023.2 hPa | 0 mm | - | - | - |
* Rain latest hour (hover to see other rain measurements)
** Current wind speed in m/s (hover to see current wind gust speed)